GW4852 Weather Reports


time (UTC)temp
F
wind
direction
speed
knots
gust
knots
rain 1hr
in
rain 24hr
in
rain mn
in
humidity
%
barometer
mb
20260509201322 67 73 1.7 2.6 0.00 0.00 0.00 55 1009.8
20260509200818 67 82 0.0 1.7 0.00 0.00 0.00 53 1009.5
20260509200314 67 5 0.9 2.6 0.00 0.00 0.00 55 1009.5
20260509195810 66 51 0.9 2.6 0.00 0.00 0.00 58 1009.7
20260509195306 67 62 0.9 1.7 0.00 0.00 0.00 56 1009.7
20260509194805 66 45 1.7 2.6 0.00 0.00 0.00 58 1009.6
20260509194301 66 88 0.0 0.9 0.00 0.00 0.00 54 1009.9
20260509193758 67 122 0.0 1.7 0.00 0.00 0.00 54 1010.1
20260509193258 67 122 0.0 1.7 0.00 0.00 0.00 54 1010.1
20260509192754 68 103 2.6 2.6 0.00 0.00 0.00 53 1010.1
20260509192250 68 127 2.6 2.6 0.00 0.00 0.00 53 1009.9
20260509191745 68 268 1.7 2.6 0.00 0.00 0.00 55 1009.9
20260509191242 69 243 0.0 0.9 0.00 0.00 0.00 55 1010.0
20260509190738 69 71 2.6 5.2 0.00 0.00 0.00 50 1009.9
20260509190235 71 249 0.0 1.7 0.00 0.00 0.00 50 1010.0
20260509185732 70 311 0.0 2.6 0.00 0.00 0.00 53 1010.1
20260509185228 69 222 1.7 3.5 0.00 0.00 0.00 51 1010.3
20260509184726 68 245 2.6 3.5 0.00 0.00 0.00 55 1010.2
20260509184223 66 160 0.9 5.2 0.00 0.00 0.00 57 1010.3
20260509183720 66 104 1.7 2.6 0.00 0.00 0.00 60 1010.2
20260509183215 65 98 1.7 3.5 0.00 0.00 0.00 60 1010.4
20260509182711 65 174 1.7 2.6 0.00 0.00 0.00 58 1010.4
20260509182209 63 89 0.9 2.6 0.00 0.00 0.00 61 1010.5
20260509181706 65 101 2.6 5.2 0.00 0.00 0.00 59 1010.5
20260509181203 64 84 2.6 3.5 0.00 0.00 0.00 60 1010.7
20260509180700 64 107 1.7 3.5 0.00 0.00 0.00 59 1010.5
20260509180156 64 144 1.7 2.6 0.00 0.00 0.00 60 1010.7
20260509175652 65 103 2.6 3.5 0.00 0.00 0.00 59 1010.7
20260509175149 64 209 3.5 5.2 0.00 0.00 0.00 59 1010.4
20260509174645 64 101 2.6 6.1 0.00 0.00 0.00 61 1010.8
20260509174145 63 36 0.0 2.6 0.00 0.00 0.00 64 1010.8
20260509173642 62 92 1.7 1.7 0.00 0.00 0.00 66 1010.8
20260509173137 61 106 0.9 2.6 0.00 0.00 0.00 66 1010.8
20260509172634 61 123 1.7 3.5 0.00 0.00 0.00 66 1011.2
20260509172130 61 96 0.9 2.6 0.00 0.00 0.00 65 1011.2
20260509171626 62 99 1.7 2.6 0.00 0.00 0.00 65 1011.5
20260509171123 62 79 2.6 3.5 0.00 0.00 0.00 65 1011.3
20260509170619 61 110 0.0 1.7 0.00 0.00 0.00 63 1011.3
20260509170115 62 329 1.7 1.7 0.00 0.00 0.00 63 1011.3
20260509165614 63 60 0.9 1.7 0.00 0.00 0.00 61 1011.6
20260509165110 63 147 0.9 0.9 0.00 0.00 0.00 61 1011.7
20260509164606 62 56 0.9 0.9 0.00 0.00 0.00 65 1011.7
20260509164101 60 330 0.0 0.9 0.00 0.00 0.00 67 1011.8
20260509163600 60 324 0.9 1.7 0.00 0.00 0.00 68 1011.9
20260509163054 60 6 0.9 1.7 0.00 0.00 0.00 70 1011.9
20260509162551 60 300 0.9 2.6 0.00 0.00 0.00 71 1011.9
20260509162047 60 313 0.9 1.7 0.00 0.00 0.00 72 1011.8
20260509161545 61 271 0.0 0.9 0.00 0.00 0.00 69 1012.1
20260509161044 61 14 0.0 0.0 0.00 0.00 0.00 70 1011.9
20260509160541 60 14 0.0 0.0 0.00 0.00 0.00 71 1011.9
20260509160036 59 14 0.9 1.7 0.00 0.00 0.00 73 1011.9
20260509155532 60 34 0.0 0.0 0.00 0.00 0.00 71 1012.0
20260509155029 60 269 0.0 0.0 0.00 0.00 0.00 71 1011.9
20260509154525 60 269 0.0 0.9 0.00 0.00 0.00 70 1011.7
20260509154023 60 269 0.0 0.9 0.00 0.00 0.00 71 1011.8
20260509153520 60 269 0.9 1.7 0.00 0.00 0.00 75 1011.9
20260509153016 59 358 0.0 1.7 0.00 0.00 0.00 75 1011.9
20260509152512 58 12 0.0 0.9 0.00 0.00 0.00 76 1011.8
20260509152009 58 275 0.0 1.7 0.00 0.00 0.00 75 1011.8
20260509151505 58 326 0.9 2.6 0.00 0.00 0.00 77 1012.1
20260509151004 58 6 0.9 1.7 0.00 0.00 0.00 77 1011.9
20260509150500 58 307 1.7 1.7 0.00 0.00 0.00 76 1012.0
20260509145959 58 335 0.0 2.6 0.00 0.00 0.00 78 1011.9
20260509145454 59 22 1.7 3.5 0.00 0.00 0.00 78 1011.6
20260509144949 58 326 0.0 0.9 0.00 0.00 0.00 77 1011.9
20260509144447 57 298 1.7 2.6 0.00 0.00 0.00 77 1011.8
20260509143944 57 275 0.9 2.6 0.00 0.00 0.00 79 1011.9
20260509143441 58 327 2.6 3.5 0.00 0.00 0.00 78 1012.1
20260509142937 57 34 0.0 0.0 0.00 0.00 0.00 77 1012.2
20260509142434 57 72 0.0 0.0 0.00 0.00 0.00 79 1012.1
20260509141929 56 70 0.0 0.0 0.00 0.00 0.00 79 1012.2
20260509141426 56 70 0.0 0.9 0.00 0.00 0.00 80 1012.4
20260509140923 56 47 0.0 1.7 0.00 0.00 0.00 79 1012.3
20260509140419 55 26 0.0 0.9 0.00 0.00 0.00 83 1012.1
20260509135918 55 26 0.9 1.7 0.00 0.00 0.00 82 1012.1
20260509135415 54 46 0.0 0.0 0.00 0.00 0.00 84 1012.0
20260509134912 54 46 0.0 0.0 0.00 0.00 0.00 87 1012.2
20260509134410 53 46 0.0 0.0 0.00 0.00 0.00 88 1012.1
20260509133907 53 14 0.0 0.0 0.00 0.00 0.00 88 1011.9
20260509133403 53 357 0.9 0.9 0.00 0.00 0.00 89 1011.9
20260509132902 52 7 0.0 2.6 0.00 0.00 0.00 90 1011.8
20260509132359 53 336 1.7 2.6 0.00 0.00 0.00 91 1011.7
20260509131857 53 337 1.7 1.7 0.00 0.00 0.00 88 1011.8
20260509131353 53 279 0.0 0.0 0.00 0.00 0.00 88 1011.8
20260509130850 53 279 0.0 0.0 0.00 0.00 0.00 88 1012.2
20260509130345 53 279 0.0 0.0 0.00 0.00 0.00 89 1012.1
20260509125842 52 279 0.0 0.0 0.00 0.00 0.00 89 1012.2
20260509125339 52 279 0.0 0.0 0.00 0.00 0.00 88 1012.2
20260509124835 52 279 0.0 0.0 0.00 0.00 0.00 88 1012.3
20260509124332 52 279 0.0 0.0 0.00 0.00 0.00 87 1012.3
20260509123830 52 279 0.0 0.0 0.00 0.00 0.00 89 1012.1
20260509123327 52 279 0.0 0.0 0.00 0.00 0.00 88 1012.2
20260509122822 52 80 0.0 0.0 0.00 0.00 0.00 88 1012.1
20260509122320 51 62 0.0 0.0 0.00 0.00 0.00 88 1012.2
20260509121817 51 62 0.0 0.9 0.00 0.00 0.00 88 1012.2
20260509121314 50 65 0.9 1.7 0.00 0.00 0.00 89 1012.1
20260509120812 50 93 1.7 1.7 0.00 0.00 0.00 89 1012.2
20260509120309 50 311 1.7 3.5 0.00 0.00 0.00 86 1012.2
20260509115808 50 305 1.7 2.6 0.00 0.00 0.00 87 1012.1
20260509115306 50 121 0.0 0.9 0.00 0.00 0.00 85 1012.4
20260509114802 50 57 0.9 2.6 0.00 0.00 0.00 84 1012.0
20260509114301 50 355 2.6 3.5 0.00 0.00 0.00 86 1012.0
20260509113759 50 346 1.7 1.7 0.00 0.00 0.00 86 1011.9
20260509113256 50 343 0.9 1.7 0.00 0.00 0.00 87 1012.0
20260509112753 50 342 0.9 1.7 0.00 0.00 0.00 84 1012.1
20260509112250 50 343 0.0 0.0 0.00 0.00 0.00 84 1012.1
20260509111747 50 342 0.0 0.0 0.00 0.00 0.00 84 1012.0
20260509111244 50 344 0.9 0.9 0.00 0.00 0.00 86 1012.0
20260509110741 50 344 0.9 1.7 0.00 0.00 0.00 85 1012.0
20260509110238 50 344 0.9 1.7 0.00 0.00 0.00 85 1012.0
20260509105736 50 344 1.7 1.7 0.00 0.00 0.00 82 1011.9
20260509105233 50 344 0.0 0.0 0.00 0.00 0.00 83 1011.8
20260509104730 50 344 0.9 0.9 0.00 0.00 0.00 83 1011.8
20260509104227 50 345 0.0 0.0 0.00 0.00 0.00 81 1011.7
20260509103725 50 345 0.0 0.9 0.00 0.00 0.00 83 1011.5
20260509103222 50 344 0.0 1.7 0.00 0.00 0.00 83 1011.6
20260509102720 49 322 1.7 1.7 0.00 0.00 0.00 84 1011.5
20260509102217 50 338 1.7 1.7 0.00 0.00 0.00 82 1011.5
20260509101713 49 351 0.0 0.0 0.00 0.00 0.00 85 1011.5
20260509101209 49 351 0.0 0.0 0.00 0.00 0.00 84 1011.6
20260509100707 49 351 0.0 0.0 0.00 0.00 0.00 84 1011.4
20260509100204 49 351 0.0 0.0 0.00 0.00 0.00 85 1011.3
20260509095701 49 351 0.9 1.7 0.00 0.00 0.00 84 1011.3
20260509095158 49 336 0.9 1.7 0.00 0.00 0.00 85 1011.2
20260509094654 49 342 1.7 1.7 0.00 0.00 0.00 85 1011.4
20260509094151 49 334 0.9 1.7 0.00 0.00 0.00 85 1011.2
20260509093650 49 353 0.9 0.9 0.00 0.00 0.00 85 1011.2
20260509093147 49 356 0.9 1.7 0.00 0.00 0.00 85 1011.3
20260509092644 49 344 0.9 1.7 0.00 0.00 0.00 84 1011.3
20260509092143 50 349 0.0 0.9 0.00 0.00 0.00 83 1011.3
20260509091641 49 355 0.9 0.9 0.00 0.00 0.00 83 1011.3
20260509091136 49 332 1.7 1.7 0.00 0.00 0.00 83 1011.4
20260509090635 49 15 1.7 1.7 0.00 0.00 0.00 83 1011.4
20260509090131 49 336 0.9 1.7 0.00 0.00 0.00 84 1011.3
20260509085629 49 332 0.9 1.7 0.00 0.00 0.00 84 1011.2
20260509085124 49 333 1.7 1.7 0.00 0.00 0.00 85 1011.2
20260509084622 49 325 0.9 1.7 0.00 0.00 0.00 85 1011.0
20260509084119 50 335 1.7 2.6 0.00 0.00 0.00 83 1011.0
20260509083616 50 349 0.9 1.7 0.00 0.00 0.00 84 1011.0
20260509083112 50 25 0.0 0.0 0.00 0.00 0.00 83 1011.2
20260509082610 50 25 0.0 0.0 0.00 0.00 0.00 85 1011.3
20260509082107 50 25 0.0 0.0 0.00 0.00 0.00 84 1011.3
20260509081604 49 25 0.0 0.0 0.00 0.00 0.00 84 1011.3
20260509081101 49 25 0.0 0.0 0.00 0.00 0.00 88 1011.2
20260509080559 49 25 0.0 0.0 0.00 0.00 0.00 86 1011.3
20260509080057 49 25 0.0 0.0 0.00 0.00 0.00 86 1011.5
20260509075554 49 25 0.0 0.0 0.00 0.00 0.00 88 1011.5
20260509075052 49 25 0.0 0.0 0.00 0.00 0.00 84 1011.4
20260509074549 49 25 0.0 0.0 0.00 0.00 0.00 83 1011.4
20260509074045 49 25 0.0 0.0 0.00 0.00 0.00 84 1011.4
20260509073542 49 25 0.0 0.0 0.00 0.00 0.00 84 1011.4
20260509073038 48 25 0.0 0.0 0.00 0.00 0.00 84 1011.5
20260509072535 48 25 0.0 0.0 0.00 0.00 0.00 86 1011.5
20260509072032 48 25 0.0 0.0 0.00 0.00 0.00 87 1011.4
20260509071528 48 25 0.0 0.0 0.00 0.00 0.00 86 1011.6
20260509071026 48 25 0.0 0.0 0.00 0.00 0.00 85 1011.7
20260509070523 48 25 0.0 0.0 0.00 0.00 0.00 86 1011.6
20260509070019 48 25 0.0 0.0 0.00 0.00 0.00 85 1011.4
20260509065514 48 25 0.0 0.0 0.00 0.00 0.00 86 1011.8
20260509065011 48 25 0.0 0.0 0.00 0.00 0.00 86 1011.8
20260509064509 48 25 0.0 0.0 0.00 0.00 0.00 85 1011.7
20260509064007 48 25 0.0 0.0 0.00 0.00 0.00 84 1011.7
20260509063502 48 25 0.0 0.0 0.00 0.00 0.00 87 1011.6
20260509062959 48 25 0.0 0.0 0.00 0.00 0.00 85 1011.8
20260509062456 48 25 0.0 0.0 0.00 0.00 0.00 87 1011.9
20260509061954 48 25 0.0 0.0 0.00 0.00 0.00 88 1011.9
20260509061451 48 25 0.0 0.0 0.00 0.00 0.00 84 1012.1
20260509060948 48 25 0.0 0.0 0.00 0.00 0.00 85 1011.9
20260509060446 48 25 0.0 0.0 0.00 0.00 0.00 86 1012.1
20260509055941 48 25 0.0 0.0 0.00 0.00 0.00 85 1012.1
20260509055436 48 25 0.0 0.0 0.00 0.00 0.00 85 1012.1
20260509054933 48 25 0.0 0.0 0.00 0.00 0.00 84 1012.1
20260509054430 49 25 0.0 0.0 0.00 0.00 0.00 82 1012.1
20260509053928 48 25 0.0 0.9 0.00 0.00 0.00 84 1012.0
20260509053426 49 25 0.0 0.0 0.00 0.00 0.00 83 1012.1
20260509052923 49 25 0.0 0.0 0.00 0.00 0.00 83 1012.2
20260509052420 49 25 0.0 0.0 0.00 0.00 0.00 84 1012.1
20260509051918 49 25 0.0 0.0 0.00 0.00 0.00 86 1012.3
20260509051416 49 25 0.0 0.0 0.00 0.00 0.00 82 1012.3
20260509050912 49 25 0.0 0.9 0.00 0.00 0.00 83 1012.2
20260509050409 49 5 0.0 0.0 0.00 0.00 0.00 81 1012.0
20260509045906 49 5 0.0 0.0 0.00 0.00 0.00 82 1012.1
20260509045403 49 5 0.0 0.0 0.00 0.00 0.00 81 1012.2
20260509044900 49 5 0.0 0.0 0.00 0.00 0.00 83 1012.1
20260509044358 49 5 0.0 0.0 0.00 0.00 0.00 80 1012.1
20260509043855 48 5 0.0 0.0 0.00 0.00 0.00 82 1012.1
20260509043350 48 5 0.0 0.0 0.00 0.00 0.00 82 1012.1
20260509042846 48 5 0.0 0.0 0.00 0.00 0.00 82 1012.1
20260509042343 47 5 0.0 0.0 0.00 0.00 0.00 83 1012.2
20260509041840 47 5 0.0 0.0 0.00 0.00 0.00 84 1012.2
20260509041336 47 5 0.0 0.0 0.00 0.00 0.00 85 1012.3
20260509040835 48 5 0.0 0.9 0.00 0.00 0.00 83 1012.4
20260509040332 48 340 0.0 0.0 0.00 0.00 0.00 82 1012.2
20260509035829 48 340 0.0 0.0 0.00 0.00 0.00 82 1012.2
20260509035326 49 348 1.7 1.7 0.00 0.00 0.00 81 1012.3
20260509034822 49 351 0.0 0.0 0.00 0.00 0.00 80 1012.0
20260509034320 50 351 0.0 0.0 0.00 0.00 0.00 80 1012.2
20260509033817 49 352 0.0 0.0 0.00 0.00 0.00 81 1012.2
20260509033314 50 333 1.7 1.7 0.00 0.00 0.00 79 1012.1
20260509032811 51 340 0.0 0.9 0.00 0.00 0.00 78 1012.3
20260509032308 51 14 0.0 0.0 0.00 0.00 0.00 75 1012.4
20260509031806 51 22 0.9 1.7 0.00 0.00 0.00 76 1012.3
20260509031303 54 328 2.6 2.6 0.00 0.00 0.00 73 1012.6
20260509030800 54 343 1.7 1.7 0.00 0.00 0.00 70 1012.7
20260509030258 54 323 1.7 1.7 0.00 0.00 0.00 70 1012.6
20260509025755 54 63 0.9 1.7 0.00 0.00 0.00 72 1012.7
20260509025250 53 303 0.0 2.6 0.00 0.00 0.00 74 1012.8
20260509024746 53 331 1.7 2.6 0.00 0.00 0.00 74 1012.8
20260509024242 54 347 0.9 0.9 0.00 0.00 0.00 75 1012.7
20260509023739 54 328 0.9 0.9 0.00 0.00 0.00 70 1012.7
20260509023236 53 312 1.7 1.7 0.00 0.00 0.00 76 1012.9
20260509022732 53 355 0.9 0.9 0.00 0.00 0.00 75 1012.8
20260509022230 54 347 0.9 0.9 0.00 0.00 0.00 72 1012.9
20260509021727 53 334 0.9 0.9 0.00 0.00 0.00 75 1012.9
20260509021224 53 334 0.0 0.9 0.00 0.00 0.00 77 1012.8
20260509020722 54 334 0.9 1.7 0.00 0.00 0.00 74 1012.8
20260509020219 54 334 0.0 0.0 0.00 0.00 0.00 68 1012.8
20260509015717 53 335 0.0 0.0 0.00 0.00 0.00 76 1012.4
20260509015215 54 333 0.9 0.9 0.00 0.00 0.00 72 1012.6
20260509014711 53 333 0.0 0.9 0.00 0.00 0.00 73 1012.7
20260509014209 53 329 1.7 1.7 0.00 0.00 0.00 73 1012.6
20260509013705 54 347 1.7 1.7 0.00 0.00 0.00 72 1012.7
20260509013201 53 348 0.0 0.0 0.00 0.00 0.00 74 1012.7
20260509012657 53 348 0.0 0.0 0.00 0.00 0.00 73 1012.7
20260509012154 53 348 0.0 0.9 0.00 0.00 0.00 76 1012.5
20260509011652 53 323 0.9 0.9 0.00 0.00 0.00 72 1012.6
20260509011149 53 312 0.0 0.0 0.00 0.00 0.00 71 1012.3
20260509010647 54 312 0.0 0.9 0.00 0.00 0.00 70 1012.3
20260509010143 53 309 0.0 0.9 0.00 0.00 0.00 71 1012.2
20260509005641 53 316 0.0 0.0 0.00 0.00 0.00 73 1012.3
20260509005137 53 351 0.0 0.0 0.00 0.00 0.00 74 1012.4
20260509004632 53 351 0.0 0.0 0.00 0.00 0.00 73 1012.3
20260509004130 53 351 0.0 0.0 0.00 0.00 0.00 73 1012.2
20260509003628 53 351 0.0 0.0 0.00 0.00 0.00 71 1012.3
20260509003125 53 351 0.0 0.0 0.00 0.00 0.00 72 1012.2
20260509002623 54 351 0.0 0.0 0.00 0.00 0.00 67 1012.3
20260509002120 55 347 0.0 0.0 0.00 0.00 0.00 64 1012.3
20260509001617 55 347 0.0 0.0 0.00 0.00 0.00 63 1012.3
20260509001113 56 347 0.0 0.0 0.00 0.00 0.00 64 1012.1
20260509000612 58 337 1.7 2.6 0.00 0.00 0.00 62 1012.1
20260509000108 57 332 1.7 2.6 0.00 0.00 0.00 59 1012.1
20260508235605 57 342 0.9 1.7 0.00 0.00 0.00 60 1012.1
20260508235101 58 341 1.7 2.6 0.00 0.00 0.00 55 1012.1
20260508234559 60 342 0.9 1.7 0.00 0.00 0.00 57 1012.0
20260508234055 63 342 0.9 0.9 0.00 0.00 0.00 44 1011.8
20260508233555 63 342 0.9 0.9 0.00 0.00 0.00 46 1011.9
20260508233052 63 342 0.0 0.0 0.00 0.00 0.00 48 1011.9
20260508232549 63 342 0.0 0.0 0.00 0.00 0.00 46 1011.8
20260508232046 63 342 0.0 0.9 0.00 0.00 0.00 44 1011.9
20260508231543 64 342 0.9 1.7 0.00 0.00 0.00 41 1012.0
20260508231040 65 332 1.7 1.7 0.00 0.00 0.00 41 1011.8
20260508230537 65 315 0.0 1.7 0.00 0.00 0.00 43 1011.9
20260508230033 65 308 0.9 0.9 0.00 0.00 0.00 45 1011.8
20260508225531 66 286 0.0 0.9 0.00 0.00 0.00 39 1011.9
20260508225027 66 281 0.0 0.0 0.00 0.00 0.00 39 1012.0
20260508224525 66 230 0.9 1.7 0.00 0.00 0.00 39 1011.9
20260508224022 66 287 0.0 0.0 0.00 0.00 0.00 41 1011.9
20260508223520 66 291 1.7 2.6 0.00 0.00 0.00 39 1011.9
20260508223017 67 267 0.0 1.7 0.00 0.00 0.00 40 1011.9
20260508222515 67 240 0.0 3.5 0.00 0.00 0.00 38 1012.1
20260508222011 67 270 0.0 5.2 0.00 0.00 0.00 37 1012.1
20260508221508 67 242 1.7 1.7 0.00 0.00 0.00 37 1012.1
20260508221004 67 244 0.9 2.6 0.00 0.00 0.00 37 1012.1
20260508220500 67 241 0.9 1.7 0.00 0.00 0.00 37 1012.0
20260508215956 67 220 0.0 1.7 0.00 0.00 0.00 39 1012.0
20260508215453 67 230 0.9 2.6 0.00 0.00 0.00 37 1012.1
20260508214950 67 282 0.9 3.5 0.00 0.00 0.00 38 1011.9
20260508214448 69 313 1.7 5.2 0.00 0.00 0.00 37 1012.1
20260508213943 68 188 1.7 2.6 0.00 0.00 0.00 37 1012.2
20260508213441 67 256 1.7 3.5 0.00 0.00 0.00 38 1012.1
20260508212936 67 319 1.7 2.6 0.00 0.00 0.00 37 1012.2
20260508212434 67 320 3.5 6.1 0.00 0.00 0.00 37 1012.2
20260508211929 69 254 1.7 2.6 0.00 0.00 0.00 37 1012.3
20260508211425 68 242 0.9 1.7 0.00 0.00 0.00 35 1012.1
20260508210923 67 257 0.9 2.6 0.00 0.00 0.00 37 1012.4
20260508210419 66 247 0.9 1.7 0.00 0.00 0.00 36 1012.1
20260508205915 65 250 0.9 3.5 0.00 0.00 0.00 37 1012.5
20260508205413 65 211 2.6 3.5 0.00 0.00 0.00 36 1012.5
20260508204909 65 258 0.9 1.7 0.00 0.00 0.00 39 1012.5
20260508204406 65 259 2.6 3.5 0.00 0.00 0.00 36 1012.5
20260508203901 65 278 2.6 3.5 0.00 0.00 0.00 37 1012.5
20260508203358 65 243 2.6 3.5 0.00 0.00 0.00 37 1012.6
20260508202853 65 267 0.9 3.5 0.00 0.00 0.00 37 1012.6
20260508202351 65 233 1.7 3.5 0.00 0.00 0.00 36 1012.6
20260508201848 65 286 1.7 2.6 0.00 0.00 0.00 36 1012.7